User: anonymous   Login
Location: *
(1.3500°S, 147.5000°W)
Time: 19:10:19
(UTC+00:00)
Language:

Tiangong - Orbit

View from above orbital plane
View from above orbital plane
View from above satellite
View from above satellite

Ground track
Ground track

The orbit data is extracted from the following two-line orbital elements,

1 48274U 21035A   21204.55111465  .00007874  00000-0  89078-4 0  9995
2 48274  41.4698  61.2481 0008214 222.2008 225.0245 15.62639682 13385
Epoch (UTC): 23 July 2021 13:13:36
Eccentricity: 0.0008214
inclination: 41.4698°
perigee height: 374 km
apogee height: 385 km
right ascension of ascending node: 61.2481°
argument of perigee: 222.2008°
revolutions per day: 15.62639682
mean anomaly at epoch: 225.0245°
orbit number at epoch: 1338

The dashed part of the orbit path shows where the satellite is in the earth's shadow,  

DLR